| time (UTC) | temp F | wind direction | speed MPH | gust MPH | rain 1hr in | rain 24hr in | rain mn in | humidity % | barometer mb |
| 20260510174513 | 56 | 108 | 3.0 | 12.0 | 0.00 | 0.00 | 0.00 | 62 | 1014.8 |
| 20260510173020 | 56 | 352 | 2.0 | 9.0 | 0.00 | 0.00 | 0.00 | 63 | 1014.9 |
| 20260510171514 | 56 | 58 | 1.0 | 10.0 | 0.00 | 0.00 | 0.00 | 63 | 1015.1 |
| 20260510170012 | 56 | 73 | 2.0 | 11.0 | 0.00 | 0.00 | 0.00 | 64 | 1015.1 |
| 20260510164512 | 57 | 9 | 6.0 | 11.0 | 0.00 | 0.00 | 0.00 | 64 | 1015.2 |
| 20260510163017 | 56 | 53 | 1.0 | 11.0 | 0.00 | 0.00 | 0.00 | 64 | 1015.4 |
| 20260510161515 | 57 | 49 | 5.0 | 12.0 | 0.00 | 0.00 | 0.00 | 63 | 1015.5 |
| 20260510160012 | 57 | 38 | 3.0 | 10.0 | 0.00 | 0.00 | 0.00 | 66 | 1015.6 |
| 20260510154514 | 56 | 76 | 2.0 | 14.0 | 0.00 | 0.00 | 0.00 | 67 | 1015.8 |
| 20260510153030 | 56 | 29 | 2.0 | 12.0 | 0.00 | 0.00 | 0.00 | 67 | 1015.9 |
| 20260510151511 | 55 | 72 | 3.0 | 12.0 | 0.00 | 0.00 | 0.00 | 68 | 1016.1 |
| 20260510150016 | 54 | 44 | 4.0 | 13.0 | 0.00 | 0.00 | 0.00 | 69 | 1016.4 |
| 20260510144521 | 54 | 48 | 5.0 | 14.0 | 0.00 | 0.00 | 0.00 | 69 | 1016.5 |
| 20260510143016 | 55 | 102 | 6.0 | 17.0 | 0.00 | 0.00 | 0.00 | 69 | 1016.7 |
| 20260510141516 | 55 | 82 | 7.0 | 18.0 | 0.00 | 0.00 | 0.00 | 70 | 1016.9 |
| 20260510140012 | 55 | 53 | 3.0 | 13.0 | 0.00 | 0.00 | 0.00 | 71 | 1017.0 |
| 20260510134518 | 55 | 36 | 3.0 | 14.0 | 0.00 | 0.00 | 0.00 | 71 | 1017.0 |
| 20260510133020 | 55 | 85 | 6.0 | 14.0 | 0.00 | 0.00 | 0.00 | 71 | 1017.1 |
| 20260510131518 | 54 | 32 | 7.0 | 14.0 | 0.00 | 0.00 | 0.00 | 70 | 1017.3 |
| 20260510130020 | 55 | 89 | 7.0 | 17.0 | 0.00 | 0.00 | 0.00 | 69 | 1017.1 |
| 20260510124516 | 56 | 54 | 8.0 | 14.0 | 0.00 | 0.00 | 0.00 | 69 | 1017.3 |
| 20260510123022 | 55 | 86 | 6.0 | 15.0 | 0.00 | 0.00 | 0.00 | 70 | 1017.4 |
| 20260510121520 | 55 | 86 | 5.0 | 17.0 | 0.00 | 0.00 | 0.00 | 71 | 1017.5 |
| 20260510120020 | 55 | 98 | 5.0 | 16.0 | 0.00 | 0.00 | 0.00 | 72 | 1017.5 |
| 20260510114520 | 54 | 109 | 6.0 | 12.0 | 0.00 | 0.00 | 0.00 | 73 | 1017.7 |
| 20260510113021 | 54 | 27 | 5.0 | 15.0 | 0.00 | 0.00 | 0.00 | 74 | 1017.9 |
| 20260510111522 | 54 | 61 | 5.0 | 14.0 | 0.00 | 0.00 | 0.00 | 74 | 1018.1 |
| 20260510110008 | 54 | 51 | 5.0 | 16.0 | 0.00 | 0.00 | 0.00 | 73 | 1018.2 |
| 20260510104512 | 54 | 64 | 5.0 | 15.0 | 0.00 | 0.00 | 0.00 | 73 | 1018.2 |
| 20260510103014 | 55 | 22 | 6.0 | 16.0 | 0.00 | 0.00 | 0.00 | 73 | 1018.1 |
| 20260510101522 | 55 | 78 | 4.0 | 16.0 | 0.00 | 0.00 | 0.00 | 72 | 1018.1 |
| 20260510100005 | 54 | 44 | 4.0 | 17.0 | 0.00 | 0.00 | 0.00 | 74 | 1018.1 |
| 20260510094510 | 54 | 13 | 6.0 | 20.0 | 0.00 | 0.00 | 0.00 | 74 | 1018.3 |
| 20260510093016 | 54 | 49 | 4.0 | 11.0 | 0.00 | 0.00 | 0.00 | 75 | 1018.2 |
| 20260510091517 | 53 | 12 | 2.0 | 14.0 | 0.00 | 0.00 | 0.00 | 75 | 1018.4 |
| 20260510090021 | 53 | 5 | 2.0 | 15.0 | 0.00 | 0.00 | 0.00 | 74 | 1018.5 |
| 20260510084507 | 53 | 61 | 5.0 | 14.0 | 0.00 | 0.00 | 0.00 | 74 | 1018.5 |
| 20260510083010 | 53 | 64 | 4.0 | 16.0 | 0.00 | 0.00 | 0.00 | 74 | 1018.6 |
| 20260510081519 | 53 | 61 | 5.0 | 14.0 | 0.00 | 0.00 | 0.00 | 75 | 1018.5 |
| 20260510080019 | 53 | 25 | 5.0 | 16.0 | 0.00 | 0.00 | 0.00 | 76 | 1018.5 |
| 20260510074523 | 52 | 97 | 5.0 | 17.0 | 0.00 | 0.00 | 0.00 | 77 | 1018.4 |
| 20260510073005 | 51 | 59 | 8.0 | 18.0 | 0.00 | 0.00 | 0.00 | 80 | 1018.4 |
| 20260510071510 | 50 | 69 | 5.0 | 20.0 | 0.00 | 0.00 | 0.00 | 80 | 1018.2 |
| 20260510070025 | 49 | 72 | 3.0 | 16.0 | 0.00 | 0.00 | 0.00 | 81 | 1018.2 |
| 20260510064526 | 49 | 80 | 3.0 | 16.0 | 0.00 | 0.00 | 0.00 | 82 | 1018.3 |
| 20260510063023 | 49 | 48 | 5.0 | 15.0 | 0.00 | 0.00 | 0.00 | 82 | 1018.2 |
| 20260510061509 | 49 | 59 | 5.0 | 14.0 | 0.00 | 0.00 | 0.00 | 83 | 1018.1 |
| 20260510060014 | 49 | 62 | 4.0 | 14.0 | 0.00 | 0.00 | 0.00 | 83 | 1018.2 |
| 20260510054524 | 48 | 64 | 9.0 | 16.0 | 0.00 | 0.00 | 0.00 | 84 | 1018.2 |
| 20260510053022 | 48 | 71 | 5.0 | 12.0 | 0.00 | 0.00 | 0.00 | 84 | 1018.3 |
| 20260510051538 | 48 | 26 | 3.0 | 15.0 | 0.00 | 0.00 | 0.00 | 84 | 1018.3 |
| 20260510050012 | 48 | 19 | 5.0 | 14.0 | 0.00 | 0.00 | 0.00 | 84 | 1018.3 |
| 20260510044522 | 47 | 67 | 3.0 | 12.0 | 0.00 | 0.00 | 0.00 | 85 | 1018.2 |
| 20260510043025 | 47 | 88 | 2.0 | 11.0 | 0.00 | 0.00 | 0.00 | 85 | 1018.4 |
| 20260510041506 | 47 | 74 | 2.0 | 10.0 | 0.00 | 0.00 | 0.00 | 84 | 1018.5 |
| 20260510040010 | 47 | 40 | 3.0 | 14.0 | 0.00 | 0.00 | 0.00 | 84 | 1018.6 |
| 20260510034514 | 47 | 74 | 2.0 | 11.0 | 0.00 | 0.00 | 0.00 | 84 | 1018.5 |
| 20260510033021 | 47 | 62 | 3.0 | 12.0 | 0.00 | 0.00 | 0.00 | 84 | 1018.7 |
| 20260510031522 | 48 | 57 | 3.0 | 13.0 | 0.00 | 0.00 | 0.00 | 83 | 1018.8 |
| 20260510030007 | 48 | 71 | 1.0 | 9.0 | 0.00 | 0.00 | 0.00 | 83 | 1018.7 |
| 20260510024510 | 48 | 42 | 4.0 | 11.0 | 0.00 | 0.00 | 0.00 | 82 | 1018.6 |
| 20260510023016 | 49 | 86 | 4.0 | 10.0 | 0.00 | 0.00 | 0.00 | 81 | 1018.7 |
| 20260510021519 | 49 | 67 | 3.0 | 13.0 | 0.00 | 0.00 | 0.00 | 80 | 1018.7 |
| 20260510020024 | 49 | 62 | 3.0 | 12.0 | 0.00 | 0.00 | 0.00 | 79 | 1018.6 |
| 20260510014519 | 49 | 61 | 2.0 | 13.0 | 0.00 | 0.00 | 0.00 | 78 | 1018.6 |
| 20260510013012 | 50 | 74 | 1.0 | 13.0 | 0.00 | 0.00 | 0.00 | 77 | 1018.7 |
| 20260510011526 | 50 | 69 | 1.0 | 10.0 | 0.00 | 0.00 | 0.00 | 77 | 1018.6 |
| 20260510010034 | 51 | 60 | 3.0 | 12.0 | 0.00 | 0.00 | 0.00 | 76 | 1018.5 |
| 20260510004524 | 51 | 61 | 3.0 | 12.0 | 0.00 | 0.00 | 0.00 | 75 | 1018.7 |
| 20260510003011 | 51 | 45 | 1.0 | 14.0 | 0.00 | 0.00 | 0.00 | 74 | 1018.7 |
| 20260510001516 | 51 | 39 | 2.0 | 10.0 | 0.00 | 0.00 | 0.00 | 74 | 1018.6 |
| 20260510000021 | 52 | 65 | 2.0 | 9.0 | 0.00 | 0.00 | 0.00 | 74 | 1018.5 |
| 20260509234525 | 52 | 33 | 1.0 | 12.0 | 0.00 | 0.00 | 0.00 | 77 | 1018.4 |
| 20260509233024 | 52 | 32 | 5.0 | 15.0 | 0.00 | 0.00 | 0.00 | 81 | 1018.2 |
| 20260509231515 | 53 | 53 | 1.0 | 8.0 | 0.00 | 0.00 | 0.00 | 82 | 1018.2 |
| 20260509230016 | 53 | 62 | 0.0 | 4.0 | 0.00 | 0.00 | 0.00 | 82 | 1018.0 |
| 20260509224521 | 54 | 62 | 0.0 | 4.0 | 0.00 | 0.00 | 0.00 | 81 | 1017.8 |
| 20260509223027 | 55 | 62 | 0.0 | 3.0 | 0.00 | 0.00 | 0.00 | 80 | 1017.9 |
| 20260509221541 | 55 | 62 | 0.0 | 4.0 | 0.00 | 0.00 | 0.00 | 79 | 1018.1 |
| 20260509220013 | 56 | 44 | 1.0 | 5.0 | 0.00 | 0.00 | 0.00 | 78 | 1018.0 |
| 20260509214517 | 57 | 57 | 1.0 | 4.0 | 0.00 | 0.00 | 0.00 | 76 | 1018.0 |
| 20260509213025 | 57 | 49 | 0.0 | 8.0 | 0.00 | 0.00 | 0.00 | 76 | 1017.9 |
| 20260509211523 | 58 | 34 | 3.0 | 11.0 | 0.00 | 0.00 | 0.00 | 75 | 1017.7 |
| 20260509210025 | 58 | 38 | 4.0 | 11.0 | 0.00 | 0.00 | 0.00 | 74 | 1017.5 |
| 20260509204513 | 58 | 54 | 1.0 | 4.0 | 0.00 | 0.00 | 0.00 | 69 | 1017.5 |
| 20260509203020 | 58 | 21 | 2.0 | 8.0 | 0.00 | 0.00 | 0.00 | 66 | 1017.4 |
| 20260509201524 | 58 | 80 | 0.0 | 3.0 | 0.00 | 0.00 | 0.00 | 64 | 1017.0 |
| 20260509200031 | 59 | 80 | 0.0 | 4.0 | 0.00 | 0.00 | 0.00 | 63 | 1016.7 |
| 20260509194525 | 60 | 80 | 0.0 | 4.0 | 0.00 | 0.00 | 0.00 | 62 | 1016.7 |
| 20260509193017 | 61 | 80 | 0.0 | 3.0 | 0.00 | 0.00 | 0.00 | 60 | 1016.6 |
| 20260509191520 | 62 | 80 | 0.0 | 4.0 | 0.00 | 0.00 | 0.00 | 59 | 1016.6 |
| 20260509190006 | 63 | 53 | 0.0 | 6.0 | 0.00 | 0.00 | 0.00 | 57 | 1016.5 |
| 20260509184518 | 64 | 53 | 0.0 | 4.0 | 0.00 | 0.00 | 0.00 | 56 | 1016.2 |
| 20260509183012 | 65 | 40 | 0.0 | 8.0 | 0.00 | 0.00 | 0.00 | 54 | 1016.1 |
| 20260509181520 | 66 | 40 | 2.0 | 9.0 | 0.00 | 0.00 | 0.00 | 53 | 1016.0 |
| 20260509180003 | 67 | 34 | 3.0 | 10.0 | 0.00 | 0.00 | 0.00 | 52 | 1016.0 |